Content
SEND FEEDBACK

Daily
Averages
Monthly
Summary
Canada

TROIS RIVIERES AQUEDUC, QUEBEC


Home > North America > Canada > Quebec
Elevation: 180 feet     Latitude: 46 23N     Longitude: 72 37W

WEATHER
 
SELECT A DAY
Number of Records: 144,685;   Date Range: 1/1/95 - 12/19/14
 
SHARE

PRINT THIS DATA

[ ← Previous Day ]
WEATHER ALMANAC - FEBRUARY 13, 2013
[ Next Day → ]
[ °C ]   °F
Weather ElementAverageHighLow
Temperature27.9 °F30.2 °F (5:00 pm)25.2 °F (11:00 pm)
Dewpoint19.8 °F23.7 °F (9:00 pm)17 °F (7:00 am)
Humidity70.4 %84 % (11:00 pm)55 % (7:00 am)
Barometer29.79 in29.82 in (8:00 am)29.77 in (4:00 pm)
Wind Speed3.5 mph8.1 mph (3:00 am)
Weather ElementAverage
Wind DirectionSW (227.1 °)

Weather ElementTotal
Precipitation---
Heating Degree Days37.3 (Base 65)
Averaged from 22 records on February 13, 2013
WEATHER CONDITIONS BREAKOUT
WIND DIRECTION BREAKOUT
WEATHER BY HOUR - FEBRUARY 13, 2013
[ °C ]   °F
Local TimeTemperatureDewpointHumidityBarometerVisibilityWind DirectionWind SpeedGust SpeedPrecipitationEventsConditions
1:00 AM29.0 °F20.0 °F58 %29.78 inWest (270°)4.6 mph
1:00 AM29.1 °F20.1 °F69 %29.78 inWest (270°)4.6 mph
2:00 AM28.0 °F19.4 °F70 %29.78 inWNW (290°)4.6 mph
3:00 AM27.7 °F17.4 °F65 %29.79 inWNW (290°)8.1 mph
4:00 AM27.1 °F18.0 °F68 %29.79 inWNW (290°)3.5 mph
5:00 AM27.0 °F17.2 °F67 %29.80 inWest (280°)3.5 mph
6:00 AM27.0 °F17.2 °F67 %29.81 inWest (260°)2.3 mph
7:00 AM27.0 °F17.0 °F55 %29.81 inWest (270°)3.5 mph
7:00 AM26.6 °F17.2 °F68 %29.81 inWest (270°)3.5 mph
8:00 AM26.8 °F18.3 °F70 %29.82 inWNW (300°)4.6 mph
9:00 AM27.3 °F17.8 °F67 %29.82 inWNW (300°)6.9 mph
10:00 AM28.9 °F18.0 °F64 %29.82 inWest (270°)2.3 mph
11:00 AM28.8 °F19.2 °F68 %29.82 inSouth (180°)4.6 mph
4:00 PM30.0 °F22.3 °F73 %29.77 inSSW (200°)8.1 mph
5:00 PM30.2 °F21.4 °F70 %29.77 inSSW (210°)4.6 mph
6:00 PM29.3 °F23.0 °F77 %29.77 inSSW (200°)1.2 mph
7:00 PM27.7 °F21.2 °F77 %29.77 inCalm
7:00 PM28.0 °F21.0 °F66 %29.77 inCalm
8:00 PM26.4 °F21.9 °F83 %29.78 inCalm
9:00 PM28.6 °F23.7 °F82 %29.79 inESE (120°)1.2 mph
10:00 PM28.9 °F23.4 °F80 %29.78 inSSW (200°)2.3 mph
11:00 PM25.2 °F21.0 °F84 %29.78 inWNW (300°)3.5 mph
Hourly data recorded from CWTY, located miles away from Trois Rivieres Aqueduc, Quebec







STORIES FROM OUR PARTNERS